Airfield :
LOGIN :

Register | Disclaimer

   EN    FR    IT 

 










Legend :    VFR   Marginal VFR   IFR   Intensive IFR   Very Intensive IFR
Visi :
Ceiling :
>= 8 km
>= 3000ft
5 to 8 km
1000 to 3000 ft
1500m to 5 km
500 to 1000 ft
800 to 1500m
200 to 500 ft
< 800m
< 200 ft
Symbols :   Thunderstorms  Fog  Heavy snow  Heavy precipitations  Wind > 20 kt
SIGMETs :     Misc.  Thunderstorms  Icing  Turbulence  Mountain Waves  Volcanic Ashes






- Airport Elevation : 44 ft
- IATA code : SOU


EGHI - Southampton

CURRENT METAR :
  • 190720Z 31005KT 270V010 9999 SCT023 15/11 Q1014

EXPIRED METARs :
  • 190650Z VRB03KT 9999 SCT023 15/11 Q1014
  • 190620Z 31006KT 270V360 9999 BKN022 15/12 Q1013
  • 190550Z 31007KT 280V340 9999 BKN020 15/13 Q1013

TAF TAF EGHI
Valid from the 19 at 06:00 until the 19 at 15:00 UTC


190624Z 1906/1915 30006KT 9999 SCT020
PROB30
TEMPO 1906/1909 6000 -RADZ BKN010
ATIS : +44 23 8062 7103



MET'MAP, your aeronautical weather chart ! - Copyright ORBIFLY December 2007 - Disclaimer

ORBIFLY MET'MAP TEAM :

Programming & Development : Alexandra Zaïnal
Concept & original design : Baudouin d'Aumeries
Assistance for programming : Marc-Olivier Méhu
Technical & hardware support : Manuel Goepfert

Contact : metmap@orbifly.com




SOURCES & CREDITS :

   NOAA